Simultaneous Nadir Overpasses (SNOs) Predictions

Prediction of SNOs between NOAA-19 and TERRA Satellite Orbit:

Table of predicted SNOs for the next 14.0 days since TLE Epoch: 7/14/2014
Index Date (NOAA-19) Time (NOAA-19) Lat,Lon (NOAA-19) SZA (NOAA-19 ) Date (TERRA) Time (TERRA) Lat,Lon (TERRA) SZA (TERRA ) Distance(km) Time Diff (sec)
1 07/15/2014 11:34:35 70.72, 7.95 49.12 07/15/2014 11:35:23 70.72, 7.96 49.13 0.80 48
2 07/15/2014 12:25:36 -70.59, 175.40 131.00 07/15/2014 12:24:53 -70.61, 175.43 130.98 2.19 43
3 07/17/2014 16:18:25 70.78, -63.08 49.55 07/17/2014 16:19:36 70.76, -63.03 49.53 2.17 71
4 07/17/2014 17:09:26 -70.62, 104.42 130.60 07/17/2014 17:09:06 -70.65, 104.43 130.58 3.40 20
5 07/19/2014 21:02:30 71.61,-135.49 50.79 07/19/2014 21:03:36 71.50,-132.92 50.67 91.29 66
6 07/19/2014 21:53:16 -70.66, 33.42 130.17 07/19/2014 21:53:19 -70.69, 33.43 130.15 2.74 3
7 07/19/2014 22:44:04 70.08,-158.38 49.26 07/19/2014 22:42:54 70.13,-159.74 49.30 51.78 70
8 07/22/2014 02:37:06 -70.70, -37.57 129.71 07/22/2014 02:37:32 -70.70, -37.60 129.71 1.04 26
9 07/22/2014 03:28:02 70.56, 129.91 50.16 07/22/2014 03:26:59 70.59, 129.87 50.18 2.95 63
10 07/24/2014 07:20:56 -70.75,-108.58 129.22 07/24/2014 07:21:44 -70.76,-108.57 129.21 1.86 48
11 07/24/2014 08:11:52 70.63, 58.87 50.68 07/24/2014 08:11:11 70.64, 58.90 50.69 1.65 41
12 07/26/2014 12:04:46 -70.80,-179.59 128.70 07/26/2014 12:05:56 -70.81,-179.55 128.68 2.14 70
13 07/26/2014 12:55:42 70.70, -12.17
